User: anonymous   Login
Location: Unspecified
(0.0000°N, 0.0000°E)
Time: 18:22:59
(UTC+00:00)
Language:

HULIANWANG DIGUI-18 - Orbit

View from above orbital plane
View from above orbital plane
View from above satellite
View from above satellite

Ground track
Ground track

The orbit is defined by the following mean orbital elements,

1 62978U          26145.54781696 +.00000000 +00000-0 +61822-4 0 00002
2 62978  50.0076 316.7236 0001272  94.4396 265.6622 13.29324342    09
Epoch (UTC): 25 May 2026 13:08:51
Eccentricity: 0.0001272
inclination: 50.0076°
perigee height: 1148 km
apogee height: 1150 km
right ascension of ascending node: 316.7236°
argument of perigee: 94.4396°
revolutions per day: 13.29324342
mean anomaly at epoch: 265.6622°

The dashed part of the orbit path shows where the satellite is in the earth's shadow,  

DLR